Al Qaysumah, Saudi Arabia

5:08 AM +03 on April 27, 2018 (GMT +0300)
Hafr Al-Batin

Weather History for OEPA - August, 2014

Change the Weather History Date:

Monday, August 11, 2014

  Actual Average Record
Temperature  
Mean Temperature 97 °F -  
Max Temperature 112 °F 107 °F 120 °F (2017)
Min Temperature 82 °F 80 °F 82 °F (1997)
Cooling Degree Days 32    
Growing Degree Days 47 (Base 50)    
Moisture  
Dew Point 50 °F    
Average Humidity 19    
Maximum Humidity 33    
Minimum Humidity 7    
Precipitation  
Precipitation 0.00 in - - ()
Sea Level Pressure  
Sea Level Pressure 29.65 in    
Wind  
Wind Speed 5 mph ()    
Max Wind Speed 18 mph    
Max Gust Speed -    
Visibility 6.0 miles    
Events      
Averages and records for this station are not official NWS values.
T = Trace of Precipitation, MM = Missing Value Source: Averaged Metar Reports

Daily Weather History Graph

Daily Weather History Graph

Search for Another Location

Airport or City:

Astronomy

Aug. 11, 2014 Rise Set
Actual Time 5:22 AM +03 6:38 PM +03
Civil Twilight 4:57 AM +03 7:03 PM +03
Nautical Twilight 4:28 AM +03 7:32 PM +03
Astronomical Twilight 3:57 AM +03 8:03 PM +03
Moon 7:01 PM +03 (8/11) 5:53 AM +03 (8/11)
Length of Visible Light 14h 05m
Length of Day
13h 15m
Waxing Gibbous, 99% of the Moon is Illuminated
Aug 11
Waxing Gibbous
Aug 17
Last Quarter
Aug 25
New
Sep 2
First Quarter
Sep 9
Full

Hourly Weather History & Observations

Time (+03) Temp. Heat Index Dew Point Humidity Pressure Visibility Wind Dir Wind Speed Gust Speed Precip Events Conditions
12:00 AM 91 °F - 48 °F 14% 29.60 in 6 mi Calm Calm - -  
12:00 AM 91.4 °F - 48.2 °F 23% 29.68 in - Calm Calm - N/A   Clear
1:00 AM 89.6 °F - 50.0 °F 26% 29.68 in - Calm Calm - N/A   Clear
2:00 AM 87.8 °F - 50.0 °F 27% 29.68 in - Calm Calm - N/A   Clear
3:00 AM 86 °F - 50 °F 19% 29.59 in 6 mi Calm Calm - -  
3:00 AM 86.0 °F - 50.0 °F 29% 29.68 in - Calm Calm - N/A   Clear
4:00 AM 84.2 °F - 50.0 °F 30% 29.68 in - Calm Calm - N/A   Clear
5:00 AM 84.2 °F - 50.0 °F 30% 29.68 in - Calm Calm - N/A   Clear
6:00 AM 84 °F - 52 °F 23% 29.62 in 6 mi West 2.3 mph - -   Partly Cloudy
6:00 AM 84.2 °F - 51.8 °F 33% 29.71 in 6.2 mi West 2.3 mph - N/A   Scattered Clouds
7:00 AM 87.8 °F 85.7 °F 53.6 °F 31% 29.71 in 6.2 mi West 2.3 mph - N/A   Scattered Clouds
8:00 AM 93.2 °F 90.8 °F 53.6 °F 26% 29.71 in - NW 4.6 mph - N/A   Clear
9:00 AM 97 °F - 52 °F 13% 29.63 in 6 mi NNW 4.6 mph - -  
9:00 AM 96.8 °F - 51.8 °F 22% 29.71 in - NNW 4.6 mph - N/A   Clear
10:00 AM 102.2 °F 100.9 °F 55.4 °F 21% 29.71 in - Calm Calm - N/A   Clear
11:00 AM 105.8 °F 104.3 °F 53.6 °F 18% 29.71 in - WNW 9.2 mph - N/A   Clear
12:00 PM 107 °F - 52 °F 9% 29.60 in 6 mi NNW 13.8 mph - -  
12:00 PM 107.6 °F - 51.8 °F 16% 29.68 in - NNW 13.8 mph - N/A   Clear
1:00 PM 107.6 °F - 51.8 °F 16% 29.68 in - NNW 16.1 mph - N/A   Clear
2:00 PM 109.4 °F - 50.0 °F 14% 29.65 in - North 6.9 mph - N/A   Clear
3:00 PM 110 °F - 50 °F 7% 29.55 in 6 mi NW 18.4 mph - -  
3:00 PM 111.2 °F - 50.0 °F 13% 29.65 in - NW 18.4 mph - N/A   Clear
4:00 PM 109.4 °F - 50.0 °F 14% 29.62 in - NNW 18.4 mph - N/A   Clear
5:00 PM 107.6 °F - 50.0 °F 15% 29.62 in - NNW 11.5 mph - N/A   Clear
6:00 PM 106 °F - 50 °F 9% 29.54 in 6 mi NNW 16.1 mph - -  
6:00 PM 105.8 °F - 50.0 °F 15% 29.62 in - NNW 16.1 mph - N/A   Clear
7:00 PM 104.0 °F - 48.2 °F 15% 29.65 in - NNW 11.5 mph - N/A   Clear
8:00 PM 100.4 °F - 48.2 °F 17% 29.65 in - NNW 11.5 mph - N/A   Clear
9:00 PM 99 °F - 48 °F 10% 29.57 in 6 mi North 9.2 mph - -  
9:00 PM 98.6 °F - 48.2 °F 18% 29.65 in - North 9.2 mph - N/A   Clear
10:00 PM 96.8 °F - 48.2 °F 19% 29.65 in - NNW 6.9 mph - N/A   Clear
11:00 PM 95.0 °F - 48.2 °F 20% 29.65 in - NNW 6.9 mph - N/A   Clear